Weather Roundup
Issued by NWS Corpus Christi, TX

Home | Current Version | Previous Version | Text Only | Print | Product List | Glossary On
Versions: 1 2 3 4 5 6 7 8 9 10 11 12 13 14 15 16 17 18 19 20 21 22 23 24 25 26 27 28 29 30 31 32 33 34 35 36 37 38 39 40 41 42 43 44 45 46 47 48 49 50
000
ASUS44 KCRP 310110
HRRCRP

SOUTH TEXAS REGIONAL WEATHER ROUNDUP
NATIONAL WEATHER SERVICE CORPUS CHRISTI TX
800 PM CDT MON MAY 30 2016


TXZ229>244-310200-
...CORPUS CHRISTI AREA OBSERVATIONS...

CITY           SKY/WX    TMP DP  RH WIND       PRES   REMARKS
CORPUS CHRISTI CLOUDY    82  74  76 SE7       29.89R
NAS CORPUS CHR CLOUDY    82  76  81 S10       29.89R
ROCKPORT       CLOUDY    81  73  76 SE10      29.89S
KINGSVILLE NAS CLOUDY    82  76  81 SE7       29.87R
ALICE          CLOUDY    83  72  69 SE7       29.86R
FALFURRIAS     CLOUDY    85  71  61 S7        29.87R HX  90
$$

...VICTORIA AREA OBSERVATIONS...

CITY           SKY/WX    TMP DP  RH WIND       PRES   REMARKS
VICTORIA       CLOUDY    81  73  76 SE13      29.91R
BEEVILLE       FAIR      82  76  81 SE6       29.89R HX  90
PLEASANTON     PTCLDY    83  70  64 CALM      29.89S
SAN ANTONIO    CLOUDY    80  66  62 SE9       29.90S
$$

...LAREDO AREA OBSERVATIONS...

CITY           SKY/WX    TMP DP  RH WIND       PRES   REMARKS
LAREDO         MOCLDY    87  70  56 E7        29.90R HX  92
COTULLA        MOCLDY    85  70  60 N5        29.88S
DEL RIO        MOCLDY    80  66  62 S12       29.89R
MCALLEN        CLOUDY    85  74  69 SE10      29.88R HX  92
HEBBRONVILLE   MOCLDY    83  71  66 S3        29.91R
$$

...OTHER TEXAS OBSERVATIONS...

CITY           SKY/WX    TMP DP  RH WIND       PRES   REMARKS
BROWNSVILLE    PTCLDY    80  75  84 SE12      29.89R
HOUSTON        PTCLDY    79  71  76 SE10      29.91R
COL. STATION   CLEAR     82  68  62 SE5       29.92R
AUSTIN         CLOUDY    83  70  64 SE6       29.89F
WACO           CLEAR     80  66  62 SE6       29.90R
FORT WORTH     PTCLDY    80  64  58 SE6       29.89R
WICHITA FALLS  CLEAR     77  65  66 SE8       29.87S
LUBBOCK        CLOUDY    79  65  62 SE15      29.91R
EL PASO        PTSUNNY   81  43  26 E9        29.91F
$$

...MARINE OBSERVATIONS...

STATION/POSITION TIME  SKY/WX   TEMP    WIND        PRES    VSBY  WAVE   SWELL
                                AIR SEA DIR/SP/G                  HT/PER HT/PER
                 (UTC)          (F)     (DEG/KT/KT) (MB)    (MI)  (FT/S) (FT/S)
PORT ARANSAS     0100            81 83  140/ 12/ 13 1013.2R
BUOY 90 E PORT A 0050            81 81  120/  8/ 10 1013.0R         2/ 4   2/ 5
BUOY 45 SE BAFFI 0050            81 82  160/ 16/ 17 1011.6R         3/ 6   2/ 8
BUOY 200 E PT IS 0050                                 N/A           2/ 5   2/11
BUOY 15 E GALVES 0050            80 83  150/ 10/ 12 1013.0F         2/ 5   2/ 5
$$




USA.gov is the U.S. government's official web portal to all federal, state and local government web resources and services.